Location: ????????
(48.4751°N, 37.6926°E)
Time: 21:00:54
(UTC+00:00)

SJ 16-02 - Pass Details

Date: 20 January 2021
Orbit: 606 x 616 km, 75.0° (Epoch: 02 March)

Event Time Altitude Azimuth Distance (km) Brightness Sun altitude
Rises 17:12:21 0° 228° (SW) 2,869 5.4 -29.9°
Reaches altitude 10° 17:14:50 10° 240° (WSW) 1,967 4.6 -30.3°
Maximum altitude 17:18:41 29° 301° (WNW) 1,123 3.1 -31.0°
Enters shadow 17:18:51 29° 306° (NW) 1,125 3.1 -31.0°
